www.pogodaiklimat.ru
Время
(UTC), дата
03 27.11
06 27.11
09 27.11
12 27.11
15 27.11
18 27.11
21 27.11
00 28.11
03 28.11
06 28.11
09 28.11
12 28.11
15 28.11
18 28.11
21 28.11
00 29.11
03 29.11
06 29.11
09 29.11
12 29.11
15 29.11
18 29.11
21 29.11
00 30.11
03 30.11
06 30.11
09 30.11
12 30.11
15 30.11
18 30.11
21 30.11
00 1.12
03 1.12
06 1.12
09 1.12
12 1.12
15 1.12
18 1.12
21 1.12
00 2.12
03 2.12
06 2.12
09 2.12
12 2.12
15 2.12
18 2.12
21 2.12
00 3.12
03 3.12
06 3.12
09 3.12
12 3.12
15 3.12
18 3.12
21 3.12
00 4.12
Ветер
(напр.,м/с)
Видим. Явления Облачность Т
(С)
Тd
(С)
f
(%)
Тe
(С)
Тes
(С)
Комфортность P
(гПа)
Po
(гПа)
Тmin
(С)
Tmax
(С)
R
(мм)
R24
(мм)
S
(см)
штиль 0-3
{4}
10 км зарница {гроза} 8/3 <50 м
[Sc Ac trans]
+20.9 +9.8 49 +22 +22 комфорт 1016.7 1011.0
СВ 5-6
{6}
8000 м мгла 8/4 1200 м
[Sc Ac As]
+23.0 +12.3 51 +26 +26 жарко 1018.6 1013.0 117
В 6-8
{8}
8000 м мгла 9/4 1200 м
[Sc Ac As]
+25.0 +18.1 65 +29 +31 душно 1017.2 1011.6 172
ЮВ 6-9
{11}
10 км 9/4 1200 м
[Sc Ac As]
+25.0 +14.8 54 +28 +28 жарко 1016.5 1010.9 81
ЮВ 5-8
{10}
10 км в посл. час дождь 9/4 1200 м
[Sc Ac As]
+24.7 +17.3 61 +29 +29 душно 1017.5 1011.9
ЮВ 5-7
{11}
6000 м мгла 9/5 1200 м
[Sc Ac As]
+24.5 +12.7 47 +27 +27 жарко 1018.5 1012.9
ЮЗ 5-8
{9}
6000 м слаб. дождь 8/5 1200 м
[Sc Ac As]
+20.5 +15.4 69 +24 +24 комфорт 1019.8 1014.1 +19.8 +26.5 0.3
штиль 0-1
{9}
5000 м слаб. дождь 9/5 1200 м
[Sc Ac As]
+17.7 +16.3 88 +18 +18 тепло 1019.6 1013.9
Ю 3-4
{4}
6000 м слаб. дождь 9/5 1200 м
[Sc Ac As]
+18.5 +16.3 83 +21 +21 комфорт 1019.6 1013.9
СВ 2-4
{4}
6000 м слаб. дождь 5/5 1200 м
[Sc Ac As]
+19.1 +17.7 94 +21 +23 комфорт 1021.4 1015.7 29
В 4-9
{9}
10 км в посл. час дождь 5/0 2000 м
[Ac trans]
+22.8 +18.3 73 +28 +34 душно 1017.9 1012.3 252
ЮВ 5-7
{9}
7000 м мгла 9/3 1200 м
[Sc Ac trans]
+23.5 +17.7 69 +28 +29 душно 1015.7 1010.1 51
ЮЗ 5-5
{17}
5000 м гроза, ливневой дождь 10/4 900 м
[Cb cap Ac As]
+19.2 +18.6 100 +20 +20 тепло 1017.4 1011.7
В 2-4
{17}
7000 м дымка {гроза, дождь} 6/0 2000 м
[Ac trans]
+19.7 +18.3 88 +24 +24 комфорт 1016.7 1011.0
В 3-6
{6}
7000 м слаб. дождь 8/3 1200 м
[Sc Ac trans]
+20.7 +19.5 94 +26 +26 душно 1015.4 1009.7 +16.5 +24.4 18.9
З 6-7
{9}
5000 м гроза, ливневой дождь 8/3 900 м
[Cb cap Ac As]
+19.4 +19.1 100 +20 +20 тепло 1015.0 1009.3
штиль 0-2
{5}
6000 м дымка 6/3 1200 м
[Sc Ac trans]
+19.3 +17.5 94 +21 +21 комфорт 1015.4 1009.7
В 4-4
{5}
4000 м слаб. дождь {гроза} 9/4 600 м
[Frnb Ac As]
+20.4 +18.6 94 +23 +24 комфорт 1017.3 1011.6 28
С 5-5
{7}
4000 м гроза, ливневой дождь 9/4 900 м
[Cb cap Ac As]
+20.2 +18.8 94 +23 +25 комфорт 1017.0 1011.3 22
С 5-7
{7}
7000 м дымка {гроза, дождь} 9/3 600 м
[Frnb Ac As]
+20.5 +17.5 83 +25 +26 комфорт 1016.0 1010.3 79
С 4-8
{9}
6000 м дымка 4/4 600 м
[Frnb]
+18.6 +16.6 88 +20 +20 тепло 1018.0 1012.3
С 6-8
{9}
7000 м дымка 8/3 600 м
[Frnb Cs]
+17.9 +15.1 83 +17 +17 тепло 1019.4 1013.7
С 5-9
{10}
5000 м дымка 5/3 1200 м
[Sc diur, vesp Ac trans]
+17.1 +13.9 82 +16 +16 тепло 1019.4 1013.7 +15.4 +22.5 15.6
С 7-9
{10}
3000 м дымка 6/3 900 м
[Sc diur, vesp Ac trans]
+16.4 +13.9 88 +14 +14 тепло 1019.0 1013.2
С 4-6
{8}
2500 м дымка 6/3 1200 м
[Sc diur, vesp Ac trans]
+15.6 +13.6 88 +15 +15 по сезону 1019.9 1014.1
С 6-8
{8}
3500 м дымка ясно +16.7 +13.6 82 +16 +18 по сезону 1021.4 1015.6 129
С 5-7
{8}
4000 м пыль 3/3 1200 м
[Sc]
+19.0 +14.0 73 +20 +23 по сезону 1020.0 1012.6 267
С 6-7
{8}
5000 м пыль 5/3 1200 м
[Sc Ac trans]
+18.9 +13.9 73 +20 +20 прохладно 1018.9 1013.2 157
С 3-5
{7}
7000 м мгла ясно +18.1 +13.4 73 +18 +18 по сезону 1019.4 1013.7
СЗ 2-2
{7}
5000 м дымка 5/0
[Ci fib]
+15.4 +13.9 94 +15 +15 по сезону 1019.8 1014.0
СЗ 2-4
{4}
4500 м дымка 3/0
[Ac trans]
+15.4 +14.1 94 +15 +15 по сезону 1019.0 1013.2 +13.9 +20.0
штиль 0-2
{5}
3000 м слаб. дождь 8/3 1200 м
[Sc Ac As]
+14.8 +13.6 94 +15 +15 тепло 1019.2 1013.4
штиль 0-2
{2}
3000 м в посл. час дождь 6/3 1200 м
[Sc Ac As]
+14.8 +13.6 94 +15 +15 тепло 1018.8 1013.0
З 3-3
{6}
2000 м слаб. дождь 9/3 1200 м
[Sc Ac As]
+15.9 +13.4 82 +16 +17 по сезону 1021.0 1015.2 31
З 2-2
{4}
2500 м слаб. дождь 10/4 1200 м
[Sc Ac As]
+16.8 +14.1 82 +17 +19 по сезону 1019.4 1013.6 37
С 3-5
{5}
3000 м пыль {дождь} 9/4 1200 м
[Sc Ac As]
+18.1 +14.5 83 +18 +19 прохладно 1018.1 1012.4 61
С 3-4
{6}
6000 м мгла 8/4 1200 м
[Sc Ac As]
+17.7 +13.8 77 +18 +18 по сезону 1019.3 1013.6
СВ 3-5
{6}
3500 м слаб. дождь 10/4 1200 м
[Sc Ac As]
+16.6 +14.8 89 +16 +16 по сезону 1019.9 1014.1
штиль 0-3
{6}
6000 м дымка {дождь} 6/3 1200 м
[Sc diur, vesp Ac As]
+16.2 +13.6 88 +16 +16 тепло 1019.4 1013.6 +14.2 +18.7 1.7
СВ 2-2
{6}
4000 м дымка 9/4 1200 м
[Sc Ac As]
+15.3 +14.7 100 +15 +15 тепло 1018.8 1013.0
С 3-3
{5}
6000 м дымка 6/3 1200 м
[Sc Ac As]
+16.8 +13.6 82 +17 +17 тепло 1019.2 1013.5
С 2-4
{5}
6000 м дымка 9/3 1200 м
[Sc diur, vesp Ac As]
+17.9 +14.7 83 +19 +20 тепло 1021.0 1015.3 45
СВ 2-4
{10}
4000 м дымка {дождь} 9/3 1200 м
[Sc Ac As]
+20.3 +16.8 83 +23 +28 комфорт 1018.3 1012.6 137
СВ 2-4
{10}
2000 м гроза, ливневой дождь 10/3 900 м
[Cb cap Ac As]
+18.7 +17.9 94 +21 +22 комфорт 1017.9 1012.2 15
штиль 0-3
{6}
5000 м слаб. дождь ясно +18.4 +17.2 94 +18 +18 по сезону 1017.4 1011.7
В 2-3
{6}
4000 м гроза без осадков 8/3 900 м
[Cb cap Ac As]
+19.2 +17.7 94 +21 +21 комфорт 1018.3 1012.6
штиль 0-1
{3}
4500 м дымка {гроза, дождь} 6/1 900 м
[Cb cap Ac trans]
+18.9 +18.4 94 +21 +21 комфорт 1018.0 1012.3 +15.0 +20.4 10.1
штиль 0-1
{3}
3500 м дымка 8/3 1200 м
[Sc diur, vesp Ac trans]
+18.7 +18.4 94 +21 +21 комфорт 1017.8 1012.1
С 5-4
{8}
3500 м в посл. час гроза {дождь} 9/4 900 м
[Cb cap Ac trans]
+18.7 +18.5 100 +20 +20 тепло 1019.0 1013.3
С 4-6
{8}
3500 м дымка {гроза, дождь} 9/3 1200 м
[Sc diur, vesp Ac As]
+19.9 +18.6 94 +23 +25 комфорт 1020.5 1014.8 78
СВ 3-4
{5}
4000 м дымка {дождь} 9/3 1200 м
[Sc diur, vesp Ac As]
+21.5 +18.3 78 +27 +30 душно 1019.4 1013.7 130
штиль 0-4
{5}
4500 м дымка 10/5 1200 м
[Sc diur, vesp Ac As]
+21.1 +18.2 83 +25 +26 комфорт 1018.7 1013.0 35
штиль 0-3
{5}
4500 м дымка 9/5 1200 м
[Sc diur, vesp Ac As]
+20.4 +17.5 88 +23 +23 комфорт 1019.2 1013.5
штиль 0-1
{5}
8000 м гроза, ливневой дождь 9/3 900 м
[Cb cap Ac trans]
+19.5 +17.9 88 +23 +23 комфорт 1019.4 1013.7
штиль 0-1
{5}
7000 м дымка {гроза, дождь} 8/3 1200 м
[Sc diur, vesp Ac As]
+19.0 +17.8 94 +21 +21 комфорт 1018.0 1012.3 +18.3 +22.0 3.3
С 3-3
{6}
3500 м дымка {гроза} 8/3 1200 м
[Sc diur, vesp Ac As]
+19.0 +17.6 94 +21 +21 комфорт 1017.8 1012.1
Местоположение метеостанции Эль-Кувейт (Кувейт): широта 29.22 долгота 47.97 высота над уровнем моря 48 м.
В архиве по умолчанию представлена погода в Эль-Кувейте за последнюю неделю. Архивные данные за месяц целиком и за предыдущие месяцы, начиная с января 2011 года, Вы можете получить, выбрав интересующий диапазон дат из раскрывающегося списка и нажав кнопку "Найти!".
*Определитесь, кто Вы:
Внимание! Время в таблицах - всемирное. Для получения местного времени необходимо прибавить поправку, которая равна 3 ч.
Смотрите также архив погоды в соседних городах и на ближайших метеорологических станциях:
Партнеры нашего сайта:
dekonte
Фотографии кроватей мебели для спальни
dekonte.ru

     
Пояснения к столбцам:
  • Ветер - указаны скорость ветра в м/с - средняя за 10 мин, порывы в срок и между сроками (в фигурных скобках) и направление, откуда дует ветер: С - северный,
  • СВ - северо-восточный, В - восточный, ЮВ - юго-восточный, Ю - южный, ЮЗ - юго-западный, З - западный, СЗ - северо-западный.
  • Видимость - горизонтальная дальность видимости в метрах или километрах. При видимости от 1 до 10 км при отсутствии осадков обычно наблюдается дымка, при ухудшении видимости до 1 км и менее - туман. В сухую погоду видимость может ухудшаться дымом, пылью или мглою.
  • Явления - указаны атмосферные явления, наблюдавшиеся в срок или в последний час перед сроком; фигурными скобками обозначены явления, наблюдавшиеся между сроками (за 1-3 часа до срока); квадратными скобками обозначены град или гололедные отложения с указанием их диаметра в мм.
  • Облачность - указаны через наклонную черту общая и нижняя облачность в баллах и высота нижней границы облаков в метрах; квадратными скобками обозначены формы облаков: Ci - перистые, Cs - перисто-слоистые, Cc - перисто-кучевые, Ac - высококучевые, As - высокослоистые, Sc - слоисто-кучевые, Ns - слоисто-дождевые, Cu - кучевые, Cb - кучево-дождевые. Подробнее классификацию облаков см. в Атласе облаков (PDF).
  • T - Температура воздуха - температура, измеренная на высоте 2 м над землей.
  • Td - Температура точки росы - температура, при понижении до которой содержащийся в воздухе водяной пар достигнет насыщения.
  • f - Относительная влажность воздуха - влажноcть воздуха, измеренная на высоте 2 м над землей.
  • Te - Эффективная температура - температура, которую ощущает одетый по сезону человек в тени. Характеристика душности погоды. При расчете учитывается влияние влажности воздуха и скорости ветра на теплоощущения человека.
  • Tes - Эффективная температура на солнце - температура, которую ощущает человек, с поправкой на солнечный нагрев. Характеристика знойности погоды. Зависит от высоты солнца над горизонтом, облачности и скорости ветра. Ночью, в пасмурную погоду, а также при ветре 12 м/с и более поправка равна нулю.
  • P - Атмосферное давление - приведенное к уровню моря атмосферное давление.
  • Po - Атмосферное давление - измеренное на уровне метеостанции атмосферное давление.
  • Tmin - Минимальная температура - минимум температуры воздуха на высоте 2 м над землей.
  • Tmax - Максимальная температура - максимум температуры воздуха на высоте 2 м над землей.
  • R - Количество осадков - Количество выпавших осадков за период времени, мм. При наведении курсора мыши на число - период времени, за который выпало указанное количество осадков.
  • R24 - Количество осадков - Количество выпавших осадков за 24 часа, мм.
  • S - Снежный покров - Высота снежного покрова, см. При наведении курсора мыши на число - состояние снежного покрова и степень покрытия местности в баллах.